Flag for Sweden Weather past 2 weeks in Halmstad, Sweden

Now
46 °F

Passing clouds.


Feels Like: 44 °F
Forecast: 37 / 46 °F
Wind: 6 mph from West

Location: Halmstad Swedish Air Force Base

Current Time: Mar 27, 2015 at 1:59:53 PM

Latest Report: Mar 27, 2015 at 1:20 PM


Visibility: N/A

Pressure: 29.83 "Hg

Humidity: 62%

Dew point: 34 °F

Location of HalmstadLocation

Historic Weather in Halmstad — Graph

°F

Halmstad temperature yesterday

Maximum temperature yesterday: 43 °F (at 8:20 AM)
Minimum temperature yesterday: 36 °F (at 12:20 AM)
Average temperature yesterday: 40 °F

Past Weeks' High & Low Weather Summary

 TemperatureHumidityPressure
High55 °F (Mar 17, 1:20 PM)100% (Mar 24, 6:50 AM)30.72 "Hg (Mar 24, 6:50 AM)
Low21 °F (Mar 22, 5:20 AM)26% (Mar 18, 3:20 PM)29.65 "Hg (Mar 26, 7:50 AM)
Average40 °F69%30.26 "Hg
* Reported Mar 12 12:20 PM — Mar 27 12:50 PM, Halmstad, Weather by CustomWeather, © 2015

Note: Actual official high and low records may vary slightly from our data, if they occured in-between our weather recording intervals... More about our weather records

Advertising

Halmstad weather history for previous 24 hours

 ConditionsComfort  
Time TempWeatherWind HumidityBarometerVisibility
12:50 PM
Fri, Mar 27
45 °FPassing clouds.6 mph66%29.83 "HgN/A
12:20 PM45 °FPartly sunny.8 mph66%29.83 "HgN/A
11:50 AM45 °FOvercast.5 mph66%29.83 "HgN/A
11:20 AM43 °FBroken clouds.8 mph76%29.83 "HgN/A
10:50 AM43 °FBroken clouds.6 mph76%29.83 "HgN/A
10:20 AM43 °FSunny.1 mph81%29.80 "Hg10 mi
9:50 AM43 °FPassing clouds.3 mph76%29.80 "HgN/A
9:20 AM41 °FSunny.1 mph81%29.80 "Hg10 mi
8:50 AM39 °FSunny.2 mph87%29.80 "Hg10 mi
8:20 AM37 °FPartly sunny.2 mph87%29.80 "HgN/A
7:50 AM36 °FFog.3 mph93%29.77 "Hg4 mi
7:20 AM34 °FFog.5 mph93%29.77 "Hg3 mi
6:50 AM34 °FPartly sunny.2 mph93%29.77 "Hg2 mi
6:20 AM34 °FMore clouds than sun.2 mph93%29.77 "Hg2 mi
5:50 AM30 °FMostly cloudy.2 mph100%29.74 "Hg0 mi
5:20 AM28 °FPassing clouds.1 mph93%29.74 "Hg0 mi
4:50 AM32 °FFog.5 mph100%29.74 "Hg0 mi
4:20 AM34 °FFog.5 mph93%29.74 "Hg0 mi
3:50 AM34 °FFog.5 mph93%29.74 "Hg0 mi
3:20 AM34 °FFog.2 mph93%29.71 "Hg0 mi
2:50 AM30 °FIce fog.2 mph93%29.71 "Hg0 mi
2:20 AM36 °FFog.3 mph93%29.71 "Hg0 mi
1:50 AM36 °FFog.1 mph93%29.71 "Hg0 mi
1:20 AM34 °FFog.2 mph93%29.71 "Hg0 mi
12:50 AM34 °FFog.2 mph93%29.71 "Hg0 mi
12:20 AM37 °FFog.3 mph93%29.71 "Hg1 mi
11:50 PM
Thu, Mar 26
37 °FFog.3 mph93%29.71 "Hg2 mi
11:20 PM37 °FFog.3 mph93%29.74 "Hg1 mi
10:50 PM37 °FFog.3 mph93%29.71 "Hg2 mi
10:20 PM37 °FFog.5 mph93%29.71 "Hg2 mi
9:50 PM37 °FFog.3 mph93%29.71 "Hg2 mi
9:20 PM36 °FFog.5 mph93%29.71 "Hg4 mi
8:50 PM37 °FFog.3 mph93%29.71 "Hg2 mi
8:20 PM37 °FFog.2 mph93%29.71 "Hg2 mi
7:50 PM36 °FFog.3 mph93%29.71 "Hg3 mi
7:20 PM37 °FFog.No wind93%29.71 "Hg4 mi
6:50 PM39 °FPassing clouds.2 mph87%29.71 "Hg6 mi
6:20 PM39 °FPassing clouds.2 mph87%29.68 "HgN/A
5:50 PM39 °FBroken clouds.3 mph87%29.68 "HgN/A
5:20 PM39 °FPartly sunny.7 mph93%29.68 "HgN/A
4:50 PM39 °FFog.8 mph93%29.68 "Hg6 mi
4:20 PM39 °FFog.9 mph93%29.68 "Hg4 mi
3:50 PM39 °FFog.12 mph93%29.68 "Hg2 mi
3:20 PM41 °FDrizzle. Partly sunny.9 mph93%29.68 "Hg1 mi
2:50 PM41 °FLight rain. Broken clouds.8 mph93%29.65 "Hg1 mi
2:20 PM43 °FDrizzle. Fog.7 mph87%29.65 "Hg2 mi
1:50 PM43 °FFog.6 mph87%29.65 "Hg3 mi
1:20 PM43 °FFog.7 mph87%29.65 "Hg3 mi
Weather by CustomWeather, © 2015

See weather overviewHow to use our weather pages